Lorain / Elyria, OH

11:18 PM EDT on July 24, 2017 (GMT -0400)
Lorain County Regional

Weather History for KLPR - June, 2013

Change the Weather History Date:

Saturday, June 29, 2013

  Actual Average (KCLE) Record (KCLE)
Temperature  
Mean Temperature 68 °F -  
Max Temperature 75 °F 80 °F 94 °F (1952)
Min Temperature 63 °F 61 °F 51 °F (1985)
Cooling Degree Days 3    
Growing Degree Days 18 (Base 50)    
Moisture  
Dew Point 63 °F    
Average Humidity 81    
Maximum Humidity 93    
Minimum Humidity 71    
Precipitation  
Precipitation 0.12 in - - ()
Sea Level Pressure  
Sea Level Pressure 29.61 in    
Wind  
Wind Speed 5 mph (NNW)    
Max Wind Speed 9 mph    
Max Gust Speed -    
Visibility 8 miles    
Events Rain , Thunderstorm    
Averages and records for this station are not official NWS values.
T = Trace of Precipitation, MM = Missing Value Source: NWS Daily Summary

Daily Weather History Graph

Daily Weather History Graph

Search for Another Location

Airport or City:

Trip Planner

Search our weather history database for the weather conditions in past years. The results will help you decide how hot, cold, wet, or windy it might be!

Date:

Astronomy

Jun. 29, 2013 Rise Set
Actual Time 5:58 AM EDT 9:06 PM EDT
Civil Twilight 5:24 AM EDT 9:39 PM EDT
Nautical Twilight 4:41 AM EDT 10:22 PM EDT
Astronomical Twilight 3:49 AM EDT 11:14 PM EDT
Moon 12:29 AM EDT (6/29) 1:13 PM EDT (6/29)
Length of Visible Light 16h 15m
Length of Day
15h 07m
Waning Gibbous, 56% of the Moon is Illuminated
Jun 29
Waning Gibbous
Jun 30
Last Quarter
Jul 8
New
Jul 15
First Quarter
Jul 22
Full

Hourly Weather History & Observations

Time (EDT) Temp. Dew Point Humidity Pressure Visibility Wind Dir Wind Speed Gust Speed Precip Events Conditions
12:53 AM 64.0 °F 61.0 °F 90% 29.56 in 10.0 mi WSW 5.8 mph - N/A   Clear
1:53 AM 64.0 °F 61.0 °F 90% 29.55 in 10.0 mi WSW 6.9 mph - 0.00 in   Overcast
2:53 AM 64.0 °F 61.0 °F 90% 29.55 in 10.0 mi West 6.9 mph - N/A   Mostly Cloudy
3:53 AM 64.0 °F 61.0 °F 90% 29.55 in 10.0 mi West 5.8 mph - N/A   Overcast
4:53 AM 64.0 °F 61.0 °F 90% 29.55 in 10.0 mi West 4.6 mph - N/A   Scattered Clouds
5:53 AM 63.0 °F 61.0 °F 93% 29.56 in 9.0 mi West 3.5 mph - 0.00 in Rain Light Rain
6:53 AM 64.0 °F 61.0 °F 90% 29.57 in 7.0 mi Calm Calm - 0.00 in   Overcast
7:53 AM 64.0 °F 61.0 °F 90% 29.58 in 6.0 mi WSW 3.5 mph - N/A   Mostly Cloudy
8:53 AM 68.0 °F 63.0 °F 84% 29.58 in 7.0 mi Calm Calm - N/A   Partly Cloudy
9:53 AM 70.0 °F 64.9 °F 84% 29.60 in 9.0 mi West 4.6 mph - N/A   Partly Cloudy
10:53 AM 72.0 °F 64.0 °F 76% 29.60 in 10.0 mi NNW 3.5 mph - N/A   Mostly Cloudy
11:09 AM 73.4 °F 64.4 °F 73% 29.61 in 10.0 mi Calm Calm - N/A   Scattered Clouds
11:38 AM 71.6 °F 62.6 °F 73% 29.61 in 10.0 mi North 5.8 mph - N/A   Mostly Cloudy
11:53 AM 71.1 °F 64.0 °F 78% 29.60 in 7.0 mi SE 3.5 mph - 0.01 in Rain Light Rain
12:06 PM 71.6 °F 64.4 °F 78% 29.61 in 10.0 mi Calm Calm - 0.00 in   Mostly Cloudy
12:50 PM 69.8 °F 64.4 °F 83% 29.62 in 4.0 mi NW 9.2 mph - 0.02 in Rain Rain
12:53 PM 70.0 °F 64.0 °F 81% 29.61 in 3.0 mi NW 6.9 mph - 0.03 in Rain Rain
12:59 PM 69.8 °F 64.4 °F 83% 29.62 in 2.5 mi Calm Calm - 0.01 in Rain Rain
1:22 PM 69.8 °F 64.4 °F 83% 29.62 in 3.0 mi Calm Calm - 0.06 in Rain , Thunderstorm Light Rain
1:51 PM 69.8 °F 64.4 °F 83% 29.62 in 6.0 mi Calm Calm - 0.07 in Rain Light Rain
1:53 PM 70.0 °F 64.9 °F 84% 29.61 in 6.0 mi Calm Calm - 0.07 in Rain Light Rain
2:48 PM 71.6 °F 64.4 °F 78% 29.62 in 10.0 mi NE 3.5 mph - 0.01 in Rain Light Rain
2:53 PM 72.0 °F 66.0 °F 81% 29.61 in 9.0 mi North 3.5 mph - 0.01 in Rain Light Rain
3:10 PM 73.4 °F 64.4 °F 73% 29.62 in 10.0 mi North 5.8 mph - 0.00 in Rain Light Rain
3:53 PM 73.9 °F 64.0 °F 71% 29.62 in 10.0 mi North 5.8 mph - 0.00 in   Partly Cloudy
4:48 PM 73.4 °F 64.4 °F 73% 29.64 in 10.0 mi North 9.2 mph - N/A   Overcast
4:53 PM 73.9 °F 64.0 °F 71% 29.62 in 10.0 mi NNE 8.1 mph - N/A   Mostly Cloudy
5:53 PM 73.0 °F 63.0 °F 71% 29.62 in 10.0 mi NNE 8.1 mph - N/A   Partly Cloudy
6:53 PM 73.0 °F 63.0 °F 71% 29.64 in 10.0 mi NNE 8.1 mph - N/A   Partly Cloudy
7:53 PM 71.1 °F 63.0 °F 75% 29.66 in 9.0 mi NE 9.2 mph - N/A   Scattered Clouds
8:53 PM 70.0 °F 64.0 °F 81% 29.68 in 9.0 mi NE 4.6 mph - N/A   Mostly Cloudy
9:53 PM 69.1 °F 64.0 °F 84% 29.69 in 8.0 mi NNE 4.6 mph - N/A   Mostly Cloudy
10:53 PM 69.1 °F 64.0 °F 84% 29.70 in 8.0 mi East 3.5 mph - N/A   Scattered Clouds
11:53 PM 69.1 °F 63.0 °F 81% 29.70 in 10.0 mi NE 6.9 mph - N/A   Mostly Cloudy